Westminster, MD

1:00 AM EST on November 22, 2019 (GMT -0500)
Carroll County Regional-Poage

Weather History for KDMW - September, 2019

Change the Weather History Date:

Monday, September 16, 2019

  Actual Average (WUND) Record (WUND)
Temperature  
Mean Temperature 76 °F -  
Max Temperature 87 °F - - (-1)
Min Temperature 66 °F - - (-1)
Cooling Degree Days 12    
Growing Degree Days 26 (Base 50)    
Moisture  
Dew Point 63 °F    
Average Humidity 66    
Maximum Humidity 83    
Minimum Humidity 43    
Precipitation  
Precipitation 0.00 in - - ()
Sea Level Pressure  
Sea Level Pressure 30.06 in    
Wind  
Wind Speed 1 mph (NNE)    
Max Wind Speed 6 mph    
Max Gust Speed -    
Visibility 10 miles    
Events      
Averages and records for this station are not official NWS values.
T = Trace of Precipitation, MM = Missing Value Source: NWS Daily Summary

Daily Weather History Graph

Daily Weather History Graph

Search for Another Location

Airport or City:

Astronomy

Sep. 16, 2019 Rise Set
Actual Time 6:49 AM EDT 7:15 PM EDT
Civil Twilight 6:22 AM EDT 7:42 PM EDT
Nautical Twilight 5:51 AM EDT 8:13 PM EDT
Astronomical Twilight 5:18 AM EDT 8:46 PM EDT
Moon 8:49 PM EDT (9/16) 8:54 AM EDT (9/16)
Length of Visible Light 13h 19m
Length of Day
12h 25m
Waning Gibbous, 94% of the Moon is Illuminated
Sep 16
Waning Gibbous
Sep 21
Last Quarter
Sep 28
New
Oct 5
First Quarter
Oct 13
Full

Hourly Weather History & Observations

Time (EDT) Temp. Heat Index Dew Point Humidity Pressure Visibility Wind Dir Wind Speed Gust Speed Precip Events Conditions
12:00 AM 68.0 °F - 60.8 °F 78% 30.12 in 10.0 mi Calm Calm - N/A   Overcast
12:20 AM 69.8 °F - 60.8 °F 73% 30.11 in 10.0 mi Calm Calm - N/A   Overcast
12:40 AM 68.0 °F - 60.8 °F 78% 30.12 in 10.0 mi Calm Calm - N/A   Mostly Cloudy
1:00 AM 69.8 °F - 59.0 °F 68% 30.11 in 10.0 mi Calm Calm - N/A   Mostly Cloudy
1:20 AM 69.8 °F - 59.0 °F 68% 30.12 in 10.0 mi Calm Calm - N/A   Overcast
1:40 AM 69.8 °F - 60.8 °F 73% 30.11 in 10.0 mi Calm Calm - N/A   Overcast
2:00 AM 69.8 °F - 59.0 °F 68% 30.11 in 10.0 mi Calm Calm - N/A   Mostly Cloudy
2:20 AM 69.8 °F - 60.8 °F 73% 30.10 in 10.0 mi Calm Calm - N/A   Mostly Cloudy
2:40 AM 68.0 °F - 59.0 °F 73% 30.10 in 10.0 mi South 3.5 mph - N/A   Mostly Cloudy
3:20 AM 68.0 °F - 57.2 °F 68% 30.10 in 10.0 mi Calm Calm - N/A   Mostly Cloudy
3:40 AM 69.8 °F - 59.0 °F 68% 30.09 in 10.0 mi Calm Calm - N/A   Overcast
4:00 AM 68.0 °F - 60.8 °F 78% 30.09 in 10.0 mi Calm Calm - N/A   Overcast
4:20 AM 68.0 °F - 60.8 °F 78% 30.09 in 10.0 mi Calm Calm - N/A   Overcast
4:40 AM 68.0 °F - 60.8 °F 78% 30.09 in 10.0 mi Calm Calm - N/A   Overcast
5:00 AM 68.0 °F - 60.8 °F 78% 30.09 in 10.0 mi Calm Calm - N/A   Overcast
5:20 AM 68.0 °F - 60.8 °F 78% 30.09 in 10.0 mi Calm Calm - N/A   Overcast
5:40 AM 68.0 °F - 60.8 °F 78% 30.09 in 10.0 mi Calm Calm - N/A   Overcast
6:00 AM 68.0 °F - 60.8 °F 78% 30.09 in 10.0 mi Calm Calm - N/A   Mostly Cloudy
6:20 AM 66.2 °F - 60.8 °F 83% 30.09 in 10.0 mi Calm Calm - N/A   Scattered Clouds
6:40 AM 66.2 °F - 60.8 °F 83% 30.09 in 10.0 mi Calm Calm - N/A   Clear
7:00 AM 66.2 °F - 60.8 °F 83% 30.09 in 10.0 mi Calm Calm - N/A   Clear
7:20 AM 66.2 °F - 60.8 °F 83% 30.10 in 10.0 mi Calm Calm - N/A   Clear
7:40 AM 66.2 °F - 60.8 °F 83% 30.10 in 10.0 mi Calm Calm - N/A   Clear
8:20 AM 71.6 °F - 62.6 °F 73% 30.10 in 10.0 mi Calm Calm - N/A   Clear
8:40 AM 71.6 °F - 62.6 °F 73% 30.09 in 10.0 mi Calm Calm - N/A   Clear
9:00 AM 73.4 °F - 64.4 °F 73% 30.10 in 10.0 mi Calm Calm - N/A   Scattered Clouds
9:20 AM 73.4 °F - 62.6 °F 69% 30.10 in 10.0 mi Calm Calm - N/A   Mostly Cloudy
9:40 AM 73.4 °F - 64.4 °F 73% 30.10 in 10.0 mi Calm Calm - N/A   Mostly Cloudy
10:00 AM 75.2 °F - 62.6 °F 65% 30.10 in 10.0 mi Calm Calm - N/A   Mostly Cloudy
10:20 AM 75.2 °F - 60.8 °F 61% 30.10 in 10.0 mi Calm Calm - N/A   Overcast
11:00 AM 75.2 °F - 60.8 °F 61% 30.09 in 10.0 mi Calm Calm - N/A   Clear
11:20 AM 78.8 °F - 60.8 °F 54% 30.08 in 10.0 mi Calm Calm - N/A   Clear
11:40 AM 78.8 °F - 60.8 °F 54% 30.08 in 10.0 mi Calm Calm - N/A   Scattered Clouds
12:00 PM 80.6 °F 81.5 °F 60.8 °F 51% 30.08 in 10.0 mi Calm Calm - N/A   Scattered Clouds
12:20 PM 80.6 °F 81.5 °F 60.8 °F 51% 30.07 in 10.0 mi Calm Calm - N/A   Mostly Cloudy
12:40 PM 82.4 °F 83.4 °F 62.6 °F 51% 30.06 in 10.0 mi Calm Calm - N/A   Scattered Clouds
1:00 PM 80.6 °F 81.8 °F 62.6 °F 54% 30.06 in 10.0 mi Calm Calm - N/A   Scattered Clouds
1:20 PM 82.4 °F 83.4 °F 62.6 °F 51% 30.06 in 10.0 mi Calm Calm - N/A   Scattered Clouds
1:40 PM 82.4 °F 83.4 °F 62.6 °F 51% 30.05 in 10.0 mi Calm Calm - N/A   Scattered Clouds
2:00 PM 84.2 °F 85.0 °F 62.6 °F 48% 30.04 in 10.0 mi Calm Calm - N/A   Scattered Clouds
2:20 PM 86.0 °F 86.6 °F 62.6 °F 45% 30.04 in 10.0 mi NW 3.5 mph - N/A   Scattered Clouds
2:40 PM 84.2 °F 85.0 °F 62.6 °F 48% 30.03 in 10.0 mi North 5.8 mph - N/A   Scattered Clouds
3:00 PM 86.0 °F 87.3 °F 64.4 °F 48% 30.02 in 10.0 mi North 3.5 mph - N/A   Scattered Clouds
3:20 PM 87.8 °F 88.5 °F 62.6 °F 43% 30.01 in 10.0 mi Calm Calm - N/A   Scattered Clouds
3:40 PM 86.0 °F 87.3 °F 64.4 °F 48% 30.01 in 10.0 mi Calm Calm - N/A   Mostly Cloudy
4:00 PM 84.2 °F 85.6 °F 64.4 °F 51% 30.01 in 10.0 mi NE 4.6 mph - N/A   Overcast
4:20 PM 84.2 °F 85.6 °F 64.4 °F 51% 30.00 in 10.0 mi North 3.5 mph - N/A   Mostly Cloudy
4:40 PM 84.2 °F 85.6 °F 64.4 °F 51% 30.00 in 10.0 mi North 4.6 mph - N/A   Mostly Cloudy
5:20 PM 84.2 °F 85.6 °F 64.4 °F 51% 30.00 in 10.0 mi NE 3.5 mph - N/A   Mostly Cloudy
5:40 PM 84.2 °F 85.6 °F 64.4 °F 51% 29.99 in 10.0 mi NE 4.6 mph - N/A   Scattered Clouds
6:00 PM 82.4 °F 83.9 °F 64.4 °F 54% 29.99 in 10.0 mi NE 5.8 mph - N/A   Scattered Clouds
6:20 PM 82.4 °F 84.6 °F 66.2 °F 58% 30.00 in 10.0 mi NE 4.6 mph - N/A   Mostly Cloudy
6:40 PM 80.6 °F 82.7 °F 66.2 °F 61% 30.00 in 10.0 mi ENE 4.6 mph - N/A   Overcast
7:00 PM 80.6 °F 82.7 °F 66.2 °F 61% 30.01 in 10.0 mi NE 3.5 mph - N/A   Overcast
7:20 PM 78.8 °F - 66.2 °F 65% 30.01 in 10.0 mi NE 4.6 mph - N/A   Overcast
7:40 PM 78.8 °F - 66.2 °F 65% 30.01 in 10.0 mi NE 4.6 mph - N/A   Overcast
8:00 PM 78.8 °F - 66.2 °F 65% 30.01 in 10.0 mi Calm Calm - N/A   Mostly Cloudy
8:20 PM 77.0 °F - 64.4 °F 65% 30.01 in 10.0 mi ENE 4.6 mph - N/A   Scattered Clouds
8:40 PM 75.2 °F - 64.4 °F 69% 30.02 in 10.0 mi Calm Calm - N/A   Clear
9:20 PM 75.2 °F - 66.2 °F 73% 30.03 in 10.0 mi Calm Calm - N/A   Scattered Clouds
10:00 PM 75.2 °F - 64.4 °F 69% 30.04 in 10.0 mi Calm Calm - N/A   Scattered Clouds
10:20 PM 75.2 °F - 66.2 °F 73% 30.04 in 10.0 mi Calm Calm - N/A   Scattered Clouds
10:40 PM 73.4 °F - 66.2 °F 78% 30.04 in 10.0 mi Calm Calm - N/A   Mostly Cloudy
11:00 PM 73.4 °F - 66.2 °F 78% 30.05 in 10.0 mi Calm Calm - N/A   Overcast
11:20 PM 71.6 °F - 66.2 °F 83% 30.05 in 10.0 mi Calm Calm - N/A   Overcast
11:40 PM 71.6 °F - 66.2 °F 83% 30.05 in 10.0 mi Calm Calm - N/A   Overcast